PGT795K LTFJ-EDDS

Flight info

Callsign PGT795K
Flight time 2h 42m
Altitude 36000
Route VADEN N618 BAKLO DCT XANEX DCT BESLI DCT UTEKA DCT BABIT DCT GOTAR DCT TITIG L173 MAH/N0382F240 L173 DODIL T127 TEKSI TEKSI1W
Aircraft A21N/M-SDE2E3FGHIRWXY/LB1

Departure

Time 2026-05-06 10:03
Airport Istanbul Sabiha Gökçen International Airport (LTFJ)

Arrival

Time 2026-05-06 12:45
Airport Stuttgart Airport (EDDS)
Time Latitude Longitude Altitude Speed Heading
2026-05-06 09:15 40.90312 29.30861 316 ft 0 kts 334°
2026-05-06 09:47 40.90309 29.30863 316 ft 3 kts 334°
2026-05-06 09:48 40.90286 29.30879 315 ft 4 kts 328°
2026-05-06 09:48 40.90264 29.30900 316 ft 4 kts 316°
2026-05-06 09:48 40.90248 29.30927 316 ft 3 kts 293°
2026-05-06 09:48 40.90246 29.30932 316 ft 4 kts 291°
2026-05-06 09:55 40.90248 29.30925 316 ft 2 kts 283°
2026-05-06 09:55 40.90247 29.30901 316 ft 4 kts 257°
2026-05-06 09:55 40.90222 29.30876 316 ft 6 kts 190°
2026-05-06 09:55 40.90178 29.30896 315 ft 8 kts 154°
2026-05-06 09:56 40.90123 29.30931 316 ft 10 kts 154°
2026-05-06 09:56 40.90054 29.30975 316 ft 12 kts 154°
2026-05-06 09:56 40.89973 29.31027 316 ft 14 kts 154°
2026-05-06 09:56 40.89876 29.31069 316 ft 15 kts 165°
2026-05-06 09:57 40.89776 29.31132 316 ft 17 kts 148°
2026-05-06 09:57 40.89679 29.31220 316 ft 18 kts 154°
2026-05-06 09:57 40.89566 29.31293 315 ft 18 kts 154°
2026-05-06 09:57 40.89450 29.31367 312 ft 19 kts 154°
2026-05-06 09:58 40.89340 29.31438 309 ft 14 kts 154°
2026-05-06 09:58 40.89266 29.31477 308 ft 12 kts 187°
2026-05-06 09:58 40.89208 29.31422 308 ft 11 kts 171°
2026-05-06 09:58 40.89132 29.31435 306 ft 12 kts 218°
2026-05-06 09:59 40.89090 29.31331 306 ft 14 kts 245°
2026-05-06 09:59 40.89047 29.31215 305 ft 15 kts 242°
2026-05-06 09:59 40.89001 29.31090 304 ft 16 kts 243°
2026-05-06 09:59 40.88952 29.30959 300 ft 16 kts 244°
2026-05-06 10:00 40.88905 29.30831 301 ft 17 kts 244°
2026-05-06 10:00 40.88853 29.30689 294 ft 18 kts 244°
2026-05-06 10:00 40.88799 29.30542 292 ft 18 kts 244°
2026-05-06 10:00 40.88743 29.30389 286 ft 19 kts 244°
2026-05-06 10:01 40.88687 29.30238 286 ft 14 kts 244°
2026-05-06 10:01 40.88621 29.30192 283 ft 13 kts 154°
2026-05-06 10:01 40.88539 29.30244 283 ft 11 kts 154°
2026-05-06 10:01 40.88504 29.30319 288 ft 13 kts 59°
2026-05-06 10:02 40.88549 29.30433 291 ft 19 kts 64°
2026-05-06 10:02 40.88708 29.30871 302 ft 84 kts 61°
2026-05-06 10:02 40.89059 29.31817 306 ft 144 kts 64°
2026-05-06 10:02 40.89570 29.33198 361 ft 181 kts 65°
2026-05-06 10:03 40.90113 29.34662 977 ft 179 kts 64°
2026-05-06 10:03 40.90505 29.36199 1587 ft 183 kts 88°
2026-05-06 10:03 40.90071 29.37858 1961 ft 200 kts 122°
2026-05-06 10:03 40.89595 29.39594 2539 ft 213 kts 96°
2026-05-06 10:04 40.89498 29.41582 3225 ft 222 kts 94°
2026-05-06 10:04 40.89353 29.43727 3704 ft 246 kts 94°
2026-05-06 10:04 40.89429 29.46020 4332 ft 255 kts 73°
2026-05-06 10:04 40.90103 29.48222 5032 ft 263 kts 62°
2026-05-06 10:05 40.90934 29.50408 5649 ft 266 kts 61°
2026-05-06 10:05 40.91767 29.52606 6300 ft 269 kts 61°
2026-05-06 10:05 40.92603 29.54833 7091 ft 272 kts 62°
2026-05-06 10:05 40.93442 29.57094 7875 ft 276 kts 62°
2026-05-06 10:06 40.94293 29.59393 8710 ft 280 kts 62°
2026-05-06 10:06 40.95149 29.61728 9560 ft 284 kts 62°
2026-05-06 10:06 40.96017 29.64100 10286 ft 292 kts 62°
2026-05-06 10:06 40.96931 29.66604 10662 ft 311 kts 62°
2026-05-06 10:07 40.97892 29.69222 11285 ft 320 kts 60°
2026-05-06 10:07 40.99177 29.71623 12048 ft 320 kts 43°
2026-05-06 10:07 41.00974 29.73327 12827 ft 319 kts 23°
2026-05-06 10:07 41.03094 29.74129 13625 ft 318 kts
2026-05-06 10:08 41.05298 29.73932 14359 ft 320 kts 347°
2026-05-06 10:08 41.07452 29.73125 15045 ft 324 kts 343°
2026-05-06 10:08 41.09615 29.72240 15731 ft 327 kts 343°
2026-05-06 10:08 41.11803 29.71367 16391 ft 330 kts 343°
2026-05-06 10:09 41.14020 29.70502 17044 ft 334 kts 343°
2026-05-06 10:09 41.16264 29.69640 17679 ft 338 kts 344°
2026-05-06 10:09 41.18539 29.68777 18330 ft 342 kts 344°
2026-05-06 10:09 41.20840 29.67909 18878 ft 346 kts 344°
2026-05-06 10:10 41.23165 29.67030 19430 ft 349 kts 344°
2026-05-06 10:10 41.25512 29.66145 19982 ft 352 kts 344°
2026-05-06 10:10 41.27882 29.65252 20529 ft 355 kts 344°
2026-05-06 10:10 41.30303 29.64526 21068 ft 359 kts 352°
2026-05-06 10:11 41.32799 29.64225 21598 ft 362 kts 355°
2026-05-06 10:11 41.35322 29.64005 22134 ft 365 kts 356°
2026-05-06 10:11 41.37869 29.63786 22668 ft 368 kts 356°
2026-05-06 10:11 41.40433 29.63556 23209 ft 371 kts 355°
2026-05-06 10:12 41.43017 29.63318 23741 ft 373 kts 355°
2026-05-06 10:12 41.45616 29.63075 24160 ft 376 kts 355°
2026-05-06 10:12 41.48239 29.62830 24566 ft 379 kts 355°
2026-05-06 10:12 41.50873 29.62446 24989 ft 382 kts 349°
2026-05-06 10:13 41.53425 29.61444 25395 ft 384 kts 337°
2026-05-06 10:13 41.55734 29.59737 25800 ft 387 kts 324°
2026-05-06 10:13 41.57748 29.57345 26202 ft 390 kts 313°
2026-05-06 10:13 41.59333 29.54389 26591 ft 394 kts 300°
2026-05-06 10:14 41.60400 29.51009 26969 ft 398 kts 288°
2026-05-06 10:14 41.60999 29.47385 27358 ft 401 kts 282°
2026-05-06 10:14 41.61483 29.43701 27726 ft 403 kts 282°
2026-05-06 10:14 41.61971 29.40001 28093 ft 405 kts 282°
2026-05-06 10:15 41.62480 29.36289 28455 ft 408 kts 282°
2026-05-06 10:15 41.63001 29.32558 28815 ft 409 kts 282°
2026-05-06 10:15 41.63528 29.28805 29171 ft 411 kts 282°
2026-05-06 10:15 41.64059 29.25044 29517 ft 413 kts 282°
2026-05-06 10:16 41.64593 29.21259 29850 ft 415 kts 282°
2026-05-06 10:16 41.65128 29.17462 30176 ft 417 kts 282°
2026-05-06 10:16 41.65658 29.13641 30456 ft 419 kts 281°
2026-05-06 10:16 41.65971 29.09756 30722 ft 422 kts 275°
2026-05-06 10:17 41.66078 29.05826 31007 ft 423 kts 274°
2026-05-06 10:17 41.66149 29.01886 31278 ft 425 kts 274°
2026-05-06 10:17 41.66223 28.97931 31544 ft 427 kts 274°
2026-05-06 10:17 41.66303 28.93961 31804 ft 428 kts 274°
2026-05-06 10:18 41.66388 28.89980 32058 ft 429 kts 274°
2026-05-06 10:18 41.66472 28.85979 32313 ft 430 kts 274°
2026-05-06 10:18 41.66554 28.81981 32636 ft 430 kts 274°
2026-05-06 10:18 41.66638 28.77990 32974 ft 429 kts 274°
2026-05-06 10:19 41.66714 28.74011 33281 ft 428 kts 274°
2026-05-06 10:19 41.66791 28.70035 33579 ft 427 kts 275°
2026-05-06 10:19 41.66870 28.66072 33884 ft 426 kts 275°
2026-05-06 10:19 41.66947 28.62114 34116 ft 426 kts 275°
2026-05-06 10:20 41.67060 28.54198 34135 ft 425 kts 274°
2026-05-06 10:20 41.67147 28.46300 34123 ft 424 kts 274°
2026-05-06 10:21 41.67228 28.38407 34118 ft 424 kts 274°
2026-05-06 10:21 41.67302 28.30514 34105 ft 424 kts 274°
2026-05-06 10:22 41.67376 28.22647 34112 ft 423 kts 274°
2026-05-06 10:22 41.67443 28.14784 34115 ft 423 kts 274°
2026-05-06 10:23 41.67583 28.06931 34109 ft 421 kts 279°
2026-05-06 10:23 41.68130 28.03121 34106 ft 416 kts 290°
2026-05-06 10:23 41.69232 27.99573 34107 ft 412 kts 301°
2026-05-06 10:24 41.72308 27.93140 34106 ft 410 kts 306°
2026-05-06 10:24 41.75431 27.86803 34105 ft 410 kts 305°
2026-05-06 10:25 41.78528 27.80379 34099 ft 410 kts 305°
2026-05-06 10:25 41.81624 27.73947 34098 ft 411 kts 305°
2026-05-06 10:26 41.84697 27.67527 34088 ft 407 kts 305°
2026-05-06 10:26 41.87762 27.61127 34089 ft 408 kts 304°
2026-05-06 10:27 41.90821 27.54716 34090 ft 408 kts 304°
2026-05-06 10:27 41.93880 27.48305 34084 ft 408 kts 305°
2026-05-06 10:28 41.96925 27.41907 34076 ft 405 kts 305°
2026-05-06 10:28 41.99959 27.35508 34081 ft 408 kts 304°
2026-05-06 10:29 42.03006 27.29069 34077 ft 408 kts 305°
2026-05-06 10:29 42.06065 27.22642 34081 ft 408 kts 306°
2026-05-06 10:30 42.09684 27.16842 34072 ft 403 kts 314°
2026-05-06 10:30 42.13453 27.11253 34077 ft 404 kts 314°
2026-05-06 10:31 42.17257 27.05547 34081 ft 412 kts 313°
2026-05-06 10:31 42.21047 26.99827 34076 ft 412 kts 313°
2026-05-06 10:32 42.24886 26.94021 34069 ft 412 kts 313°
2026-05-06 10:32 42.28700 26.88250 34073 ft 412 kts 313°
2026-05-06 10:33 42.32482 26.82505 34079 ft 412 kts 313°
2026-05-06 10:33 42.36289 26.76714 34074 ft 412 kts 313°
2026-05-06 10:34 42.40098 26.70910 34065 ft 413 kts 313°
2026-05-06 10:34 42.43911 26.65090 34073 ft 413 kts 313°
2026-05-06 10:35 42.47723 26.59271 34077 ft 413 kts 313°
2026-05-06 10:35 42.51531 26.53434 34079 ft 413 kts 313°
2026-05-06 10:36 42.55060 26.47277 34071 ft 417 kts 302°
2026-05-06 10:36 42.57379 26.41469 34076 ft 418 kts 300°
2026-05-06 10:37 42.60091 26.34548 34081 ft 418 kts 301°
2026-05-06 10:37 42.62819 26.27579 34072 ft 418 kts 300°
2026-05-06 10:38 42.65546 26.20606 34050 ft 417 kts 301°
2026-05-06 10:38 42.68273 26.13655 34058 ft 417 kts 301°
2026-05-06 10:39 42.71002 26.06691 34049 ft 418 kts 300°
2026-05-06 10:39 42.73736 25.99689 34036 ft 419 kts 300°
2026-05-06 10:40 42.76464 25.92682 34027 ft 418 kts 300°
2026-05-06 10:40 42.79175 25.85691 34033 ft 417 kts 300°
2026-05-06 10:41 42.81888 25.78702 34033 ft 418 kts 300°
2026-05-06 10:41 42.84595 25.71705 34025 ft 417 kts 300°
2026-05-06 10:42 42.87317 25.64717 34012 ft 417 kts 301°
2026-05-06 10:42 42.90016 25.57725 34018 ft 417 kts 300°
2026-05-06 10:43 42.92698 25.50724 34017 ft 416 kts 300°
2026-05-06 10:44 42.96713 25.40228 34022 ft 416 kts 300°
2026-05-06 10:44 42.99388 25.33220 34022 ft 416 kts 300°
2026-05-06 10:45 43.02061 25.26206 34024 ft 416 kts 300°
2026-05-06 10:45 43.04724 25.19188 34021 ft 416 kts 300°
2026-05-06 10:46 43.07388 25.12164 34018 ft 416 kts 300°
2026-05-06 10:46 43.10037 25.05147 34005 ft 412 kts 300°
2026-05-06 10:47 43.12645 24.98174 34004 ft 412 kts 298°
2026-05-06 10:47 43.14842 24.90905 34010 ft 414 kts 295°
2026-05-06 10:48 43.16984 24.83587 34010 ft 414 kts 295°
2026-05-06 10:48 43.19133 24.76274 34000 ft 412 kts 295°
2026-05-06 10:49 43.21266 24.69003 34006 ft 411 kts 295°
2026-05-06 10:49 43.23395 24.61720 34010 ft 411 kts 295°
2026-05-06 10:50 43.25503 24.54487 34006 ft 411 kts 295°
2026-05-06 10:50 43.27620 24.47193 34007 ft 412 kts 295°
2026-05-06 10:51 43.29741 24.39883 34010 ft 412 kts 295°
2026-05-06 10:51 43.31852 24.32571 34005 ft 412 kts 295°
2026-05-06 10:52 43.33961 24.25253 34007 ft 412 kts 295°
2026-05-06 10:52 43.36065 24.17931 34005 ft 412 kts 295°
2026-05-06 10:53 43.38159 24.10628 33995 ft 409 kts 295°
2026-05-06 10:53 43.40250 24.03345 34004 ft 409 kts 296°
2026-05-06 10:54 43.42524 23.96184 34006 ft 409 kts 297°
2026-05-06 10:54 43.44812 23.89028 34006 ft 409 kts 297°
2026-05-06 10:55 43.47092 23.81872 33998 ft 407 kts 297°
2026-05-06 10:55 43.49358 23.74736 34004 ft 407 kts 296°
2026-05-06 10:56 43.51615 23.67593 34018 ft 407 kts 297°
2026-05-06 10:56 43.53872 23.60448 34017 ft 407 kts 296°
2026-05-06 10:57 43.56119 23.53288 33999 ft 407 kts 296°
2026-05-06 10:57 43.58375 23.46123 34005 ft 407 kts 296°
2026-05-06 10:58 43.60604 23.39000 34005 ft 407 kts 296°
2026-05-06 10:58 43.62844 23.31829 34017 ft 407 kts 296°
2026-05-06 10:59 43.65075 23.24646 34015 ft 407 kts 296°
2026-05-06 10:59 43.67304 23.17459 34010 ft 407 kts 295°
2026-05-06 11:00 43.69530 23.10265 34010 ft 408 kts 295°
2026-05-06 11:00 43.71752 23.03063 34009 ft 407 kts 295°
2026-05-06 11:01 43.73973 22.95855 34014 ft 408 kts 295°
2026-05-06 11:01 43.76190 22.88640 34006 ft 408 kts 295°
2026-05-06 11:02 43.78411 22.81393 34010 ft 409 kts 295°
2026-05-06 11:02 43.80627 22.74133 34008 ft 409 kts 295°
2026-05-06 11:03 43.82839 22.66869 34008 ft 410 kts 295°
2026-05-06 11:03 43.85051 22.59604 33994 ft 409 kts 295°
2026-05-06 11:04 43.87267 22.52301 34004 ft 413 kts 293°
2026-05-06 11:04 43.89487 22.44962 34011 ft 413 kts 293°
2026-05-06 11:05 43.92080 22.37890 34006 ft 413 kts 306°
2026-05-06 11:05 43.95766 22.31791 34015 ft 412 kts 310°
2026-05-06 11:06 43.99493 22.25821 34010 ft 412 kts 310°
2026-05-06 11:06 44.03220 22.19772 34013 ft 412 kts 310°
2026-05-06 11:07 44.06944 22.13711 34007 ft 412 kts 310°
2026-05-06 11:07 44.10670 22.07646 34006 ft 412 kts 310°
2026-05-06 11:08 44.14385 22.01573 34005 ft 412 kts 309°
2026-05-06 11:08 44.18108 21.95478 34008 ft 413 kts 309°
2026-05-06 11:09 44.21830 21.89372 34012 ft 413 kts 309°
2026-05-06 11:09 44.25538 21.83262 34016 ft 412 kts 309°
2026-05-06 11:10 44.29238 21.77163 34015 ft 412 kts 309°
2026-05-06 11:10 44.32943 21.71041 34013 ft 413 kts 309°
2026-05-06 11:11 44.36650 21.64905 34012 ft 413 kts 309°
2026-05-06 11:11 44.40354 21.58765 34009 ft 413 kts 309°
2026-05-06 11:12 44.44055 21.52614 34010 ft 413 kts 309°
2026-05-06 11:12 44.47749 21.46453 34003 ft 413 kts 308°
2026-05-06 11:13 44.51447 21.40284 34005 ft 414 kts 308°
2026-05-06 11:13 44.55144 21.34102 34005 ft 413 kts 308°
2026-05-06 11:14 44.58802 21.27961 33999 ft 413 kts 308°
2026-05-06 11:14 44.62478 21.21763 33997 ft 413 kts 308°
2026-05-06 11:15 44.66163 21.15564 33994 ft 414 kts 308°
2026-05-06 11:15 44.69846 21.09351 33997 ft 414 kts 308°
2026-05-06 11:16 44.73527 21.03131 33997 ft 414 kts 308°
2026-05-06 11:16 44.77196 20.96895 33995 ft 414 kts 307°
2026-05-06 11:17 44.80868 20.90652 33996 ft 414 kts 307°
2026-05-06 11:17 44.84540 20.84406 33994 ft 414 kts 307°
2026-05-06 11:18 44.88208 20.78156 33989 ft 414 kts 307°
2026-05-06 11:18 44.91870 20.71893 33994 ft 414 kts 307°
2026-05-06 11:19 44.95529 20.65622 33996 ft 414 kts 307°
2026-05-06 11:19 44.99190 20.59337 33991 ft 415 kts 307°
2026-05-06 11:20 45.02849 20.53031 33990 ft 415 kts 307°
2026-05-06 11:20 45.06506 20.46721 33989 ft 415 kts 307°
2026-05-06 11:21 45.10161 20.40406 33988 ft 415 kts 307°
2026-05-06 11:21 45.13812 20.34073 33993 ft 415 kts 306°
2026-05-06 11:22 45.17462 20.27729 33988 ft 415 kts 306°
2026-05-06 11:22 45.21110 20.21379 33986 ft 415 kts 306°
2026-05-06 11:23 45.24753 20.15028 33988 ft 415 kts 306°
2026-05-06 11:23 45.28368 20.08698 33984 ft 415 kts 306°
2026-05-06 11:24 45.31996 20.02338 33970 ft 415 kts 306°
2026-05-06 11:24 45.35622 19.95976 33978 ft 414 kts 306°
2026-05-06 11:25 45.39239 19.89604 33968 ft 414 kts 306°
2026-05-06 11:25 45.42850 19.83232 33971 ft 414 kts 306°
2026-05-06 11:26 45.45871 19.77880 33976 ft 414 kts 305°
2026-05-06 11:26 45.49451 19.71538 33966 ft 413 kts 305°
2026-05-06 11:27 45.53045 19.65150 33969 ft 413 kts 305°
2026-05-06 11:27 45.56639 19.58758 33962 ft 413 kts 305°
2026-05-06 11:28 45.60228 19.52358 33965 ft 413 kts 305°
2026-05-06 11:28 45.63808 19.45947 33968 ft 413 kts 305°
2026-05-06 11:29 45.67389 19.39528 33967 ft 413 kts 305°
2026-05-06 11:29 45.70968 19.33103 33953 ft 413 kts 305°
2026-05-06 11:30 45.74541 19.26669 33968 ft 414 kts 305°
2026-05-06 11:30 45.78125 19.20201 33964 ft 415 kts 305°
2026-05-06 11:31 45.81704 19.13730 33960 ft 414 kts 305°
2026-05-06 11:31 45.85274 19.07250 33955 ft 414 kts 305°
2026-05-06 11:32 45.88839 19.00774 33950 ft 413 kts 304°
2026-05-06 11:32 45.92392 18.94291 33951 ft 413 kts 304°
2026-05-06 11:33 45.95466 18.87373 33960 ft 410 kts 297°
2026-05-06 11:33 45.98366 18.80314 33943 ft 410 kts 297°
2026-05-06 11:34 46.01266 18.73251 33946 ft 410 kts 297°
2026-05-06 11:34 46.04152 18.66226 33944 ft 410 kts 297°
2026-05-06 11:35 46.07050 18.59147 33949 ft 411 kts 297°
2026-05-06 11:35 46.09944 18.52066 33958 ft 410 kts 297°
2026-05-06 11:36 46.12830 18.44972 33955 ft 410 kts 296°
2026-05-06 11:36 46.15711 18.37874 33953 ft 410 kts 296°
2026-05-06 11:37 46.18592 18.30762 33951 ft 410 kts 296°
2026-05-06 11:37 46.21465 18.23649 33954 ft 410 kts 296°
2026-05-06 11:38 46.24334 18.16533 33940 ft 410 kts 296°
2026-05-06 11:38 46.27195 18.09408 33934 ft 410 kts 296°
2026-05-06 11:39 46.30053 18.02284 33919 ft 410 kts 296°
2026-05-06 11:39 46.32901 17.95158 33916 ft 409 kts 296°
2026-05-06 11:40 46.35750 17.88024 33923 ft 410 kts 296°
2026-05-06 11:40 46.38600 17.80861 33916 ft 411 kts 296°
2026-05-06 11:41 46.41448 17.73692 33919 ft 410 kts 296°
2026-05-06 11:41 46.44287 17.66520 33916 ft 410 kts 296°
2026-05-06 11:42 46.47120 17.59345 33907 ft 410 kts 296°
2026-05-06 11:42 46.49925 17.52216 33910 ft 410 kts 296°
2026-05-06 11:43 46.52753 17.45023 33907 ft 410 kts 295°
2026-05-06 11:43 46.55592 17.37782 33906 ft 410 kts 295°
2026-05-06 11:44 46.59796 17.27023 33904 ft 410 kts 295°
2026-05-06 11:44 46.62606 17.19818 33911 ft 410 kts 295°
2026-05-06 11:45 46.65408 17.12603 33907 ft 409 kts 295°
2026-05-06 11:45 46.68199 17.05397 33908 ft 409 kts 295°
2026-05-06 11:46 46.70993 16.98186 33904 ft 408 kts 295°
2026-05-06 11:46 46.73769 16.90969 33899 ft 408 kts 295°
2026-05-06 11:47 46.76545 16.83750 33906 ft 406 kts 295°
2026-05-06 11:47 46.79297 16.76574 33885 ft 405 kts 294°
2026-05-06 11:48 46.82040 16.69392 33884 ft 405 kts 294°
2026-05-06 11:48 46.84779 16.62195 33878 ft 405 kts 294°
2026-05-06 11:49 46.87514 16.54997 33879 ft 405 kts 294°
2026-05-06 11:49 46.90241 16.47816 33878 ft 403 kts 294°
2026-05-06 11:50 46.92950 16.40645 33877 ft 402 kts 294°
2026-05-06 11:50 46.95653 16.33480 33877 ft 402 kts 294°
2026-05-06 11:51 46.98350 16.26309 33868 ft 402 kts 294°
2026-05-06 11:51 47.00867 16.19022 33867 ft 400 kts 290°
2026-05-06 11:52 47.03168 16.11604 33863 ft 400 kts 290°
2026-05-06 11:52 47.05465 16.04186 33863 ft 400 kts 290°
2026-05-06 11:53 47.07740 15.96814 33863 ft 399 kts 290°
2026-05-06 11:53 47.10025 15.89391 33863 ft 399 kts 290°
2026-05-06 11:54 47.12304 15.81967 33876 ft 399 kts 289°
2026-05-06 11:54 47.14577 15.74534 33860 ft 399 kts 289°
2026-05-06 11:55 47.16848 15.67095 33856 ft 399 kts 289°
2026-05-06 11:55 47.19112 15.59652 33854 ft 399 kts 289°
2026-05-06 11:56 47.21370 15.52208 33850 ft 399 kts 289°
2026-05-06 11:56 47.23622 15.44761 33863 ft 399 kts 288°
2026-05-06 11:57 47.25881 15.37268 33855 ft 401 kts 288°
2026-05-06 11:57 47.28138 15.29759 33841 ft 401 kts 288°
2026-05-06 11:58 47.30387 15.22241 33845 ft 402 kts 288°
2026-05-06 11:58 47.32641 15.14709 33848 ft 402 kts 288°
2026-05-06 11:59 47.34882 15.07164 33870 ft 402 kts 287°
2026-05-06 11:59 47.37123 14.99613 33866 ft 402 kts 287°
2026-05-06 12:00 47.39360 14.92056 33861 ft 402 kts 287°
2026-05-06 12:00 47.41581 14.84546 33862 ft 402 kts 287°
2026-05-06 12:01 47.43826 14.76927 33853 ft 402 kts 287°
2026-05-06 12:01 47.46052 14.69349 33865 ft 402 kts 286°
2026-05-06 12:02 47.48272 14.61755 33840 ft 402 kts 286°
2026-05-06 12:02 47.50484 14.54167 33829 ft 402 kts 286°
2026-05-06 12:03 47.52673 14.46634 33824 ft 399 kts 285°
2026-05-06 12:03 47.54861 14.39077 33822 ft 400 kts 285°
2026-05-06 12:04 47.57045 14.31527 33838 ft 399 kts 285°
2026-05-06 12:04 47.59234 14.23929 33810 ft 399 kts 285°
2026-05-06 12:05 47.61406 14.16354 33798 ft 400 kts 285°
2026-05-06 12:05 47.63559 14.08821 33789 ft 399 kts 285°
2026-05-06 12:06 47.65718 14.01248 33785 ft 398 kts 285°
2026-05-06 12:06 47.67873 13.93655 33805 ft 400 kts 284°
2026-05-06 12:07 47.70037 13.86035 33768 ft 399 kts 285°
2026-05-06 12:07 47.72190 13.78423 33757 ft 399 kts 284°
2026-05-06 12:08 47.74331 13.70839 33758 ft 398 kts 284°
2026-05-06 12:08 47.76470 13.63209 33767 ft 398 kts 284°
2026-05-06 12:09 47.78605 13.55583 33798 ft 403 kts 284°
2026-05-06 12:09 47.80746 13.47905 33775 ft 402 kts 284°
2026-05-06 12:10 47.82884 13.40220 33763 ft 402 kts 283°
2026-05-06 12:10 47.85015 13.32528 33763 ft 402 kts 283°
2026-05-06 12:11 47.87141 13.24835 33757 ft 401 kts 283°
2026-05-06 12:11 47.89259 13.17141 33777 ft 404 kts 283°
2026-05-06 12:12 47.91393 13.09370 33758 ft 406 kts 284°
2026-05-06 12:12 47.93530 13.01565 33752 ft 407 kts 283°
2026-05-06 12:13 47.95660 12.93755 33755 ft 407 kts 283°
2026-05-06 12:13 47.97426 12.87257 33755 ft 406 kts 283°
2026-05-06 12:14 47.99544 12.79440 33777 ft 407 kts 283°
2026-05-06 12:14 48.01667 12.71578 33753 ft 409 kts 283°
2026-05-06 12:15 48.03789 12.63705 33752 ft 408 kts 283°
2026-05-06 12:15 48.05891 12.55821 33756 ft 407 kts 282°
2026-05-06 12:16 48.07789 12.47877 33756 ft 406 kts 281°
2026-05-06 12:16 48.09663 12.39932 33759 ft 405 kts 281°
2026-05-06 12:17 48.11528 12.31980 33750 ft 405 kts 281°
2026-05-06 12:17 48.13360 12.24139 33750 ft 405 kts 281°
2026-05-06 12:18 48.15135 12.16511 33753 ft 405 kts 281°
2026-05-06 12:18 48.16343 12.08455 33758 ft 392 kts 269°
2026-05-06 12:19 48.16855 12.00323 33771 ft 394 kts 268°
2026-05-06 12:19 48.17364 11.92170 33301 ft 392 kts 268°
2026-05-06 12:20 48.17623 11.88094 32856 ft 394 kts 268°
2026-05-06 12:20 48.17884 11.84004 32390 ft 394 kts 269°
2026-05-06 12:20 48.18311 11.79938 31928 ft 398 kts 275°
2026-05-06 12:20 48.18961 11.75911 31468 ft 397 kts 276°
2026-05-06 12:21 48.19641 11.71905 31016 ft 395 kts 276°
2026-05-06 12:21 48.20314 11.67922 30574 ft 393 kts 276°
2026-05-06 12:21 48.20977 11.63957 30141 ft 391 kts 276°
2026-05-06 12:21 48.21631 11.60011 29734 ft 390 kts 276°
2026-05-06 12:22 48.22282 11.56063 29236 ft 389 kts 276°
2026-05-06 12:22 48.22927 11.52139 28754 ft 386 kts 276°
2026-05-06 12:22 48.23564 11.48240 28299 ft 384 kts 276°
2026-05-06 12:22 48.24199 11.44347 27843 ft 383 kts 276°
2026-05-06 12:23 48.24832 11.40475 27389 ft 381 kts 276°
2026-05-06 12:23 48.25460 11.36615 26940 ft 380 kts 276°
2026-05-06 12:23 48.26223 11.32811 26485 ft 385 kts 285°
2026-05-06 12:23 48.27568 11.29291 26025 ft 397 kts 301°
2026-05-06 12:24 48.29441 11.26191 25603 ft 402 kts 307°
2026-05-06 12:24 48.31409 11.23226 25186 ft 400 kts 308°
2026-05-06 12:24 48.33375 11.20262 24801 ft 400 kts 308°
2026-05-06 12:24 48.35326 11.17281 24381 ft 399 kts 308°
2026-05-06 12:25 48.37253 11.14301 23960 ft 397 kts 308°
2026-05-06 12:25 48.39171 11.11327 23504 ft 395 kts 308°
2026-05-06 12:25 48.41080 11.08364 23004 ft 393 kts 308°
2026-05-06 12:25 48.42975 11.05417 22456 ft 390 kts 308°
2026-05-06 12:26 48.44850 11.02492 21924 ft 386 kts 308°
2026-05-06 12:26 48.46708 10.99594 21409 ft 383 kts 308°
2026-05-06 12:26 48.48551 10.96714 20899 ft 380 kts 308°
2026-05-06 12:26 48.50369 10.93856 20403 ft 376 kts 308°
2026-05-06 12:27 48.52154 10.91007 19932 ft 372 kts 307°
2026-05-06 12:27 48.53920 10.88177 19442 ft 369 kts 308°
2026-05-06 12:27 48.55674 10.85366 18987 ft 366 kts 308°
2026-05-06 12:27 48.57413 10.82580 18537 ft 362 kts 308°
2026-05-06 12:28 48.59132 10.79820 18076 ft 359 kts 308°
2026-05-06 12:28 48.60846 10.77094 17543 ft 356 kts 308°
2026-05-06 12:28 48.62551 10.74401 17002 ft 354 kts 308°
2026-05-06 12:28 48.64245 10.71723 16477 ft 352 kts 308°
2026-05-06 12:29 48.65915 10.69075 15966 ft 345 kts 308°
2026-05-06 12:29 48.67561 10.66449 15469 ft 343 kts 308°
2026-05-06 12:29 48.69196 10.63846 14980 ft 340 kts 308°
2026-05-06 12:29 48.70820 10.61263 14494 ft 338 kts 308°
2026-05-06 12:30 48.72252 10.58505 14002 ft 328 kts 294°
2026-05-06 12:30 48.72974 10.55320 13510 ft 315 kts 272°
2026-05-06 12:30 48.72938 10.52064 12986 ft 307 kts 259°
2026-05-06 12:30 48.72648 10.48865 12480 ft 309 kts 258°
2026-05-06 12:31 48.72344 10.45645 11971 ft 309 kts 258°
2026-05-06 12:31 48.72055 10.42432 11451 ft 308 kts 259°
2026-05-06 12:31 48.71777 10.39219 10959 ft 307 kts 259°
2026-05-06 12:31 48.71507 10.36019 10468 ft 306 kts 259°
2026-05-06 12:32 48.71243 10.32837 10017 ft 303 kts 259°
2026-05-06 12:32 48.70983 10.29721 9809 ft 293 kts 259°
2026-05-06 12:32 48.70736 10.26736 9764 ft 282 kts 259°
2026-05-06 12:32 48.70489 10.23810 9767 ft 280 kts 259°
2026-05-06 12:33 48.70244 10.20881 9776 ft 280 kts 259°
2026-05-06 12:33 48.69996 10.17954 9784 ft 281 kts 259°
2026-05-06 12:33 48.69749 10.15025 9786 ft 280 kts 259°
2026-05-06 12:33 48.69501 10.12095 9780 ft 281 kts 259°
2026-05-06 12:34 48.69253 10.09168 9779 ft 281 kts 259°
2026-05-06 12:34 48.69003 10.06242 9776 ft 281 kts 259°
2026-05-06 12:34 48.68748 10.03313 9780 ft 282 kts 259°
2026-05-06 12:34 48.68496 10.00378 9780 ft 281 kts 259°
2026-05-06 12:35 48.68510 9.97406 9714 ft 286 kts 278°
2026-05-06 12:35 48.69278 9.94620 9517 ft 293 kts 302°
2026-05-06 12:35 48.70736 9.92459 9278 ft 297 kts 326°
2026-05-06 12:35 48.72650 9.91307 8983 ft 298 kts 346°
2026-05-06 12:36 48.74689 9.90766 8671 ft 297 kts 350°
2026-05-06 12:36 48.76729 9.90278 8347 ft 296 kts 349°
2026-05-06 12:36 48.78654 9.89283 8041 ft 290 kts 325°
2026-05-06 12:36 48.79996 9.87190 7974 ft 269 kts 296°
2026-05-06 12:37 48.80520 9.84607 7863 ft 249 kts 271°
2026-05-06 12:37 48.80332 9.82092 7594 ft 242 kts 253°
2026-05-06 12:37 48.79854 9.79661 7260 ft 240 kts 251°
2026-05-06 12:37 48.79357 9.77214 6858 ft 241 kts 251°
2026-05-06 12:38 48.78883 9.74810 6527 ft 241 kts 252°
2026-05-06 12:38 48.78414 9.72382 6271 ft 240 kts 252°
2026-05-06 12:38 48.77952 9.69958 5964 ft 238 kts 252°
2026-05-06 12:38 48.77498 9.67547 5637 ft 238 kts 253°
2026-05-06 12:39 48.77046 9.65132 5497 ft 238 kts 253°
2026-05-06 12:39 48.76597 9.62729 5360 ft 236 kts 253°
2026-05-06 12:39 48.76154 9.60352 5059 ft 234 kts 253°
2026-05-06 12:39 48.75712 9.57991 4736 ft 232 kts 253°
2026-05-06 12:40 48.75277 9.55648 4518 ft 231 kts 253°
2026-05-06 12:40 48.74839 9.53302 4345 ft 231 kts 254°
2026-05-06 12:40 48.74406 9.50966 4078 ft 229 kts 254°
2026-05-06 12:40 48.73999 9.48676 3978 ft 220 kts 253°
2026-05-06 12:41 48.73591 9.46510 3977 ft 207 kts 253°
2026-05-06 12:41 48.73213 9.44507 3929 ft 193 kts 253°
2026-05-06 12:41 48.72846 9.42564 3701 ft 191 kts 254°
2026-05-06 12:41 48.72487 9.40659 3427 ft 186 kts 254°
2026-05-06 12:42 48.72137 9.38813 3163 ft 179 kts 254°
2026-05-06 12:42 48.71801 9.37037 2902 ft 172 kts 254°
2026-05-06 12:42 48.71480 9.35335 2675 ft 164 kts 254°
2026-05-06 12:42 48.71177 9.33729 2485 ft 155 kts 254°
2026-05-06 12:43 48.70878 9.32149 2289 ft 155 kts 254°
2026-05-06 12:43 48.70598 9.30668 2073 ft 140 kts 254°
2026-05-06 12:43 48.70327 9.29230 1867 ft 146 kts 255°
2026-05-06 12:43 48.70041 9.27740 1693 ft 148 kts 255°
2026-05-06 12:44 48.69755 9.26247 1495 ft 149 kts 256°
2026-05-06 12:44 48.69478 9.24755 1297 ft 147 kts 255°
2026-05-06 12:44 48.69200 9.23335 1216 ft 123 kts 259°
2026-05-06 12:44 48.69020 9.22357 1235 ft 75 kts 253°
2026-05-06 12:45 48.68905 9.21763 1257 ft 46 kts 253°
2026-05-06 12:45 48.68842 9.21428 1267 ft 29 kts 253°
2026-05-06 12:45 48.68817 9.21105 1271 ft 6 kts 284°
2026-05-06 12:46 48.68824 9.21022 1268 ft 10 kts 280°
2026-05-06 12:46 48.68846 9.20902 1274 ft 14 kts 287°
2026-05-06 12:46 48.68875 9.20748 1279 ft 17 kts 285°
2026-05-06 12:46 48.68876 9.20672 1281 ft 5 kts 248°
2026-05-06 12:47 48.68863 9.20609 1283 ft 8 kts 253°
2026-05-06 12:47 48.68845 9.20517 1287 ft 10 kts 254°
2026-05-06 12:47 48.68823 9.20398 1287 ft 13 kts 253°
2026-05-06 12:47 48.68796 9.20255 1291 ft 15 kts 254°
2026-05-06 12:48 48.68778 9.20166 1293 ft 0 kts 253°
2026-05-06 12:48 48.68778 9.20162 1293 ft 2 kts 254°
2026-05-06 12:48 48.68772 9.20130 1294 ft 5 kts 253°
2026-05-06 12:48 48.68759 9.20064 1295 ft 8 kts 255°
2026-05-06 12:49 48.68762 9.19958 1299 ft 12 kts 274°
2026-05-06 12:49 48.68752 9.19813 1303 ft 16 kts 253°
2026-05-06 12:49 48.68719 9.19641 1308 ft 19 kts 252°
2026-05-06 12:49 48.68682 9.19442 1313 ft 21 kts 251°
2026-05-06 12:50 48.68651 9.19282 1317 ft 14 kts 254°
2026-05-06 12:50 48.68667 9.19168 1322 ft 14 kts 340°
2026-05-06 12:50 48.68746 9.19149 1323 ft 11 kts 17°
2026-05-06 12:50 48.68773 9.19211 1322 ft 0 kts 71°
2026-05-06 12:51 48.68774 9.19217 1322 ft 2 kts 69°
2026-05-06 12:51 48.68780 9.19243 1321 ft 4 kts 72°
2026-05-06 12:52 48.68790 9.19291 1320 ft 5 kts 72°
2026-05-06 12:52 48.68830 9.19299 1320 ft 8 kts 360°
2026-05-06 12:52 48.68865 9.19289 1321 ft 0 kts 345°